Regional Weather Roundup
Issued by NWS

Home | Current Version | Previous Version | Graphics & Text | Print | Product List | Glossary On
Versions: 1 2 3 4 5 6 7 8 9 10 11 12 13 14 15 16 17 18 19 20 21 22 23 24 25 26 27 28 29 30 31 32 33 34 35 36 37 38 39 40 41 42 43 44 45 46 47 48 49 50
000
ASUS43 KLOT 171104
RWRIL

ILLINOIS REGIONAL WEATHER ROUNDUP
NATIONAL WEATHER SERVICE CHICAGO/ROMEOVILLE IL
600 AM CDT TUE OCT 17 2017

NOTE: "FAIR" INDICATES FEW OR NO CLOUDS BELOW 12,000 FEET WITH NO
SIGNIFICANT WEATHER AND/OR OBSTRUCTIONS TO VISIBILITY.

* THESE STATIONS ARE NOT UNDER NWS QUALITY CONTROL. THEY ALSO MAY NOT
  REPORT WEATHER SUCH AS PRECIPITATION OR FOG.

ILZ001-002-007-009-015-016-024-171200-
NORTHWEST ILLINOIS

CITY           SKY/WX    TMP DP  RH WIND       PRES   REMARKS
MOLINE         CLEAR     49  39  68 S7        30.19R
STERLING*      CLOUDY    49  40  71 CALM        N/A
SAVANNA*       PTCLDY    46  40  77 SE6       30.17S
$$

ILZ003-004-008-010-011-017-018-171200-
NORTH CENTRAL ILLINOIS

CITY           SKY/WX    TMP DP  RH WIND       PRES   REMARKS
ROCKFORD       CLEAR     48  39  71 S7        30.18F
FREEPORT*      CLOUDY    48  38  67 SW15G21   30.17S
ROCHELLE*      CLEAR     42  38  86 S7        30.21S
$$

ILZ005-006-012>014-019>023-171200-
NORTHEAST ILLINOIS

CITY           SKY/WX    TMP DP  RH WIND       PRES   REMARKS
CHICAGO-OHARE  CLOUDY    50  37  61 SW10      30.19S
CHICAGO-MIDWAY CLOUDY    49  39  68 SW9       30.21S
AURORA         CLOUDY    44  39  82 S6        30.22R
LANSING*       PTCLDY    45  40  84 SW8       30.24S
JOLIET*        PTCLDY    46  41  83 S3        30.23S
WAUKEGAN       CLEAR     51  39  63 SW13      30.14F
DUPAGE AIRPORT CLEAR     47  39  74 S12       30.20R
KANKAKEE*      CLEAR     42  38  84 S7        30.27S
WHEELING       CLEAR     51  39  63 SW9       30.19F
NORTHERLY ISL    N/A     50  37  61 S5          N/A
$$

LMZ740>746-171200-
SOUTHERN LAKE MICHIGAN

STATION/POSITION SKY/WX   TEMP    WIND        PRES    VSBY  WAVE
                          AIR SEA DIR/SP/G                  HT/PER
                          (F)     (DEG/KT/KT) (MB)    (MI)  (FT/S)
SOUTHERN BUOY              60 62  240/ 19/ 23 1021.0          4/ 5
WILMETTE HARBOR            54 57  220/ 16/ 19   N/A           2/ 2
HARRISON CRIB              57     220/ 23/ 25   N/A
BURNHAM HARBOR             50     230/  4/  8   N/A
CALUMET HARBOR             51     200/  9/ 12 1022.4S
BURNS HARBOR               49     180/ 12/ 16 1024.0R
MICHIGAN CITY              51     180/ 14/ 16   N/A
MICHIGAN CITY 6N           54 57  210/ 16/ 19   N/A           2/ 3
ST. JOSEPH                 55 56  220/ 16/ 19 1023.8S         3/ 4
$$

ILZ025>027-034>036-040-047-049-050-058-095>099-171200-
WEST-CENTRAL ILLINOIS

CITY           SKY/WX    TMP DP  RH WIND       PRES   REMARKS
QUINCY         PTCLDY    47  40  76 S8        30.24S
GALESBURG*     CLEAR     44  39  83 S7        30.23F
MACOMB*        CLEAR     45  40  83 S6        30.26S
JACKSONVILLE*  CLEAR     46  39  76 S8        30.27S
$$

ILZ028>032-037-038-041>044-048-051>054-059>061-171200-
CENTRAL ILLINOIS

CITY           SKY/WX    TMP DP  RH WIND       PRES   REMARKS
BLOOMINGTON    CLEAR     45  39  79 SW10      30.28S
DECATUR        PTCLDY    44  38  79 SW8       30.31R
PEORIA         CLEAR     44  41  89 SW7       30.25S
LACON*         CLEAR     47  41  81 S6        30.24S
LINCOLN*       CLEAR     45  40  83 CALM      30.29R
SPRINGFIELD    CLEAR     49  40  71 SW6       30.29R
TAYLORVILLE    PTCLDY    42  38  83 S6        30.31R
$$

ILZ033-039-045-046-055>057-062-063-171200-
EAST-CENTRAL ILLINOIS

CITY           SKY/WX    TMP DP  RH WIND       PRES   REMARKS
CHAMPAIGN      PTCLDY    43  37  79 S8        30.31R
DANVILLE*      PTCLDY    42  37  83 SW6       30.29S
MATTOON        CLOUDY    46  38  73 S7        30.32R
PARIS*         CLOUDY    44  38  80 SW7       30.34S
$$

ILZ079-100>102-171200-
SOUTHWEST ILLINOIS

CITY           SKY/WX    TMP DP  RH WIND       PRES   REMARKS
BELLEVILLE     CLOUDY    42  38  89 CALM      30.31R
CAHOKIA*       CLOUDY    40  38  93 CALM      30.32R
SPARTA*        CLOUDY    47  37  70 CALM      30.34S
$$

ILZ064>066-069>071-074>076-080>082-084>086-088>090-092>094-171200-
SOUTH-CENTRAL ILLINOIS

CITY           SKY/WX    TMP DP  RH WIND       PRES   REMARKS
CARBONDALE     CLOUDY    37  37 100 CALM      30.35R
MARION         CLEAR     41  40  98 CALM      30.35R
MT. VERNON     CLOUDY    36  36 100 CALM      30.35R
CENTRALIA*     CLOUDY    44  39  84 CALM      30.33S
METROPOLIS*    CLEAR     37  37  98 CALM      30.36R
$$

ILZ067-068-072-073-078-083-087-091-171200-
SOUTHEAST ILLINOIS

CITY           SKY/WX    TMP DP  RH WIND       PRES   REMARKS
LAWRENCEVILLE  CLEAR    N/A N/A N/A CALM      30.35R
FLORA*         CLEAR     44  39  83 CALM      30.35R HAZE
FAIRFIELD*     CLOUDY    40  40  98 CALM      30.34R
HARRISBURG*    CLEAR     37  37 100 CALM      30.35R
ROBINSON*      CLEAR     37  36  97 CALM      30.36R
CARMI*         CLEAR     35  35 100 CALM      30.35R
$$

ABBREVIATIONS USED IN REMARKS
   TC - TEMPERATURE IN CELSIUS
  WCI - WIND CHILL INDEX
   HX - HEAT INDEX
  VSB - VISIBILITY
$$




USA.gov is the U.S. government's official web portal to all federal, state and local government web resources and services.